Location: East Arcadia
(34.1056°N, 118.0176°W)
Time: 07:53:02
(UTC+00:00)

DELTA 2 R/B (1) - Pass Details

Date: 08 December 2023
Orbit: 788 x 802 km, 39.6° (Epoch: 24 February)

Event Time Altitude Azimuth Distance (km) Brightness Sun altitude
Rises 04:13:51 0° 270° (W) 3,289 7.6 -43.0°
Reaches altitude 10° 04:16:25 10° 276° (W) 2,358 6.6 -43.5°
Enters shadow 04:17:07 14° 278° (W) 2,111 6.3 -43.6°
